TimeEDT,TemperatureF,Dew PointF,Humidity,Sea Level PressureIn,VisibilityMPH,Wind Direction,Wind SpeedMPH,Gust SpeedMPH,PrecipitationIn,Events,Conditions,WindDirDegrees,DateUTC
12:19 AM,60.8,55.4,82,30.28,10.0,NNE,8.1,-,N/A,,Mostly Cloudy,20,2013-10-14 04:19:00
12:39 AM,59.0,53.6,82,30.28,10.0,NNE,6.9,-,N/A,,Mostly Cloudy,20,2013-10-14 04:39:00
12:59 AM,59.0,53.6,82,30.28,10.0,NNE,5.8,-,N/A,,Mostly Cloudy,20,2013-10-14 04:59:00
1:19 AM,59.0,53.6,82,30.28,10.0,NNE,10.4,-,N/A,,Mostly Cloudy,30,2013-10-14 05:19:00
1:39 AM,59.0,53.6,82,30.28,10.0,NNE,9.2,-,N/A,,Scattered Clouds,20,2013-10-14 05:39:00
1:59 AM,59.0,53.6,82,30.28,10.0,NNE,6.9,-,N/A,,Scattered Clouds,20,2013-10-14 05:59:00
2:19 AM,59.0,53.6,82,30.28,10.0,North,10.4,-,N/A,,Mostly Cloudy,10,2013-10-14 06:19:00
2:39 AM,59.0,53.6,82,30.28,10.0,North,6.9,16.1,N/A,,Scattered Clouds,360,2013-10-14 06:39:00
2:59 AM,59.0,53.6,82,30.27,10.0,North,6.9,-,N/A,,Mostly Cloudy,10,2013-10-14 06:59:00
3:19 AM,59.0,53.6,82,30.27,10.0,North,5.8,-,N/A,,Overcast,10,2013-10-14 07:19:00
3:39 AM,59.0,53.6,82,30.27,10.0,NNE,10.4,-,N/A,,Overcast,20,2013-10-14 07:39:00
4:00 AM,59.0,53.6,82,30.27,10.0,NNE,6.9,-,N/A,,Overcast,20,2013-10-14 08:00:00
4:20 AM,59.0,53.6,82,30.27,10.0,NNE,10.4,-,N/A,,Overcast,20,2013-10-14 08:20:00
4:40 AM,59.0,53.6,82,30.28,10.0,NNE,8.1,-,N/A,,Overcast,20,2013-10-14 08:40:00
5:00 AM,59.0,53.6,82,30.28,10.0,North,9.2,-,N/A,,Overcast,360,2013-10-14 09:00:00
5:20 AM,59.0,53.6,82,30.29,10.0,North,8.1,-,N/A,,Overcast,10,2013-10-14 09:20:00
5:40 AM,59.0,53.6,82,30.29,10.0,North,6.9,-,N/A,,Overcast,10,2013-10-14 09:40:00
6:00 AM,59.0,53.6,82,30.30,10.0,North,8.1,-,N/A,,Overcast,360,2013-10-14 10:00:00
6:20 AM,59.0,53.6,82,30.30,10.0,North,8.1,-,N/A,,Overcast,10,2013-10-14 10:20:00
6:40 AM,57.2,53.6,88,30.30,10.0,NNE,8.1,-,N/A,,Mostly Cloudy,20,2013-10-14 10:40:00
7:00 AM,57.2,53.6,88,30.30,10.0,NNE,5.8,-,N/A,,Overcast,20,2013-10-14 11:00:00
7:20 AM,59.0,53.6,82,30.30,10.0,NNE,5.8,-,N/A,,Overcast,20,2013-10-14 11:20:00
7:40 AM,57.2,53.6,88,30.30,10.0,NNE,6.9,-,N/A,,Overcast,30,2013-10-14 11:40:00
8:00 AM,55.4,53.6,94,30.30,10.0,NNE,6.9,-,N/A,,Overcast,30,2013-10-14 12:00:00
8:20 AM,55.4,51.8,88,30.31,10.0,NE,5.8,-,N/A,,Mostly Cloudy,40,2013-10-14 12:20:00
8:40 AM,55.4,51.8,88,30.31,10.0,NE,5.8,-,N/A,,Scattered Clouds,40,2013-10-14 12:40:00
9:00 AM,55.4,51.8,88,30.31,10.0,NNE,5.8,-,N/A,,Clear,20,2013-10-14 13:00:00
9:20 AM,59.0,53.6,82,30.31,10.0,NNE,6.9,-,N/A,,Clear,30,2013-10-14 13:20:00
9:40 AM,59.0,53.6,82,30.31,10.0,NNE,6.9,-,N/A,,Clear,30,2013-10-14 13:40:00
10:00 AM,59.0,53.6,82,30.31,10.0,NNE,5.8,-,N/A,,Clear,30,2013-10-14 14:00:00
10:20 AM,60.8,55.4,82,30.30,10.0,NE,6.9,-,N/A,,Clear,40,2013-10-14 14:20:00
10:40 AM,60.8,53.6,77,30.29,10.0,NNE,8.1,-,N/A,,Clear,30,2013-10-14 14:40:00
11:00 AM,60.8,55.4,82,30.29,10.0,NNE,5.8,-,N/A,,Clear,20,2013-10-14 15:00:00
11:20 AM,60.8,55.4,82,30.29,10.0,NNE,8.1,-,N/A,,Clear,30,2013-10-14 15:20:00
11:40 AM,62.6,55.4,77,30.28,10.0,North,6.9,-,N/A,,Clear,10,2013-10-14 15:40:00
12:00 PM,62.6,55.4,77,30.28,10.0,NNE,8.1,-,N/A,,Clear,20,2013-10-14 16:00:00
12:21 PM,64.4,55.4,73,30.28,10.0,NNE,9.2,-,N/A,,Scattered Clouds,30,2013-10-14 16:21:00
12:41 PM,64.4,55.4,73,30.27,10.0,North,9.2,-,N/A,,Scattered Clouds,350,2013-10-14 16:41:00
1:01 PM,68.0,57.2,68,30.26,10.0,North,8.1,-,N/A,,Scattered Clouds,350,2013-10-14 17:01:00
1:21 PM,64.4,55.4,73,30.25,10.0,North,9.2,-,N/A,,Mostly Cloudy,360,2013-10-14 17:21:00
1:41 PM,64.4,55.4,73,30.25,10.0,North,8.1,-,N/A,,Overcast,10,2013-10-14 17:41:00
2:01 PM,64.4,55.4,73,30.25,10.0,North,6.9,-,N/A,,Overcast,360,2013-10-14 18:01:00
2:21 PM,68.0,57.2,68,30.24,10.0,North,5.8,-,N/A,,Mostly Cloudy,10,2013-10-14 18:21:00
2:41 PM,69.8,57.2,64,30.24,7.0,NE,6.9,-,N/A,,Mostly Cloudy,50,2013-10-14 18:41:00
3:01 PM,68.0,55.4,64,30.23,10.0,NNE,6.9,-,N/A,,Mostly Cloudy,20,2013-10-14 19:01:00
3:21 PM,69.8,57.2,64,30.23,10.0,NNE,8.1,-,N/A,,Mostly Cloudy,20,2013-10-14 19:21:00
3:41 PM,68.0,55.4,64,30.23,10.0,NNE,6.9,-,N/A,,Mostly Cloudy,20,2013-10-14 19:41:00
4:01 PM,68.0,55.4,64,30.23,10.0,NE,5.8,-,N/A,,Mostly Cloudy,50,2013-10-14 20:01:00
4:21 PM,69.8,55.4,60,30.23,10.0,ENE,9.2,-,N/A,,Mostly Cloudy,70,2013-10-14 20:21:00
4:41 PM,68.0,55.4,64,30.23,10.0,NE,3.5,-,N/A,,Scattered Clouds,50,2013-10-14 20:41:00
5:01 PM,68.0,55.4,64,30.22,10.0,ENE,4.6,-,N/A,,Clear,60,2013-10-14 21:01:00
5:21 PM,68.0,55.4,64,30.23,10.0,ENE,5.8,-,N/A,,Clear,60,2013-10-14 21:21:00
5:41 PM,68.0,55.4,64,30.23,10.0,ENE,4.6,-,N/A,,Mostly Cloudy,60,2013-10-14 21:41:00
6:01 PM,64.4,53.6,68,30.23,10.0,ENE,3.5,-,N/A,,Scattered Clouds,60,2013-10-14 22:01:00
6:21 PM,62.6,53.6,72,30.24,10.0,ENE,3.5,-,N/A,,Mostly Cloudy,70,2013-10-14 22:21:00
6:41 PM,62.6,55.4,77,30.24,10.0,ENE,3.5,-,N/A,,Mostly Cloudy,70,2013-10-14 22:41:00
7:01 PM,60.8,55.4,82,30.25,10.0,East,3.5,-,N/A,,Scattered Clouds,80,2013-10-14 23:01:00
7:21 PM,60.8,55.4,82,30.25,10.0,ENE,4.6,-,N/A,,Clear,70,2013-10-14 23:21:00
7:41 PM,60.8,55.4,82,30.25,10.0,ENE,3.5,-,N/A,,Clear,70,2013-10-14 23:41:00
8:01 PM,59.0,53.6,82,30.25,10.0,ENE,3.5,-,N/A,,Clear,70,2013-10-15 00:01:00
8:21 PM,57.2,53.6,88,30.24,10.0,Calm,Calm,-,N/A,,Clear,0,2013-10-15 00:21:00
8:41 PM,55.4,53.6,94,30.24,10.0,ENE,3.5,-,N/A,,Clear,60,2013-10-15 00:41:00
9:01 PM,59.0,55.4,88,30.24,10.0,ENE,3.5,-,N/A,,Clear,60,2013-10-15 01:01:00
9:22 PM,55.4,53.6,94,30.24,10.0,Calm,Calm,-,N/A,,Clear,0,2013-10-15 01:22:00
9:42 PM,55.4,53.6,94,30.24,10.0,Calm,Calm,-,N/A,,Clear,0,2013-10-15 01:42:00
10:02 PM,55.4,53.6,94,30.25,10.0,Calm,Calm,-,N/A,,Clear,0,2013-10-15 02:02:00
10:22 PM,55.4,53.6,94,30.25,10.0,Calm,Calm,-,N/A,,Clear,0,2013-10-15 02:22:00
10:42 PM,53.6,51.8,94,30.24,10.0,Calm,Calm,-,N/A,,Clear,0,2013-10-15 02:42:00
11:02 PM,53.6,51.8,94,30.25,10.0,ENE,4.6,-,N/A,,Clear,60,2013-10-15 03:02:00
11:22 PM,55.4,53.6,94,30.25,10.0,NE,3.5,-,N/A,,Clear,40,2013-10-15 03:22:00
11:42 PM,55.4,53.6,94,30.24,10.0,Calm,Calm,-,N/A,,Clear,0,2013-10-15 03:42:00